Miscellaneous Local Product
Issued by NWS Hastings, NE

Home | Current Version | Previous Version | Text Only | Print | Product List | Glossary Off
Versions: 1 2 3 4 5 6 7 8 9 10 11 12 13 14 15 16 17 18 19 20 21 22 23 24 25 26 27 28 29 30 31 32 33 34 35 36 37 38 39 40 41 42 43 44 45 46 47 48 49 50

000
AXUS43 KGID 211902
MISGRI

GID CWA HOURLY WEATHER ROUNDUP
NATIONAL WEATHER SERVICE HASTINGS NE
100 PM CST SAT JAN 21 2017

NOTE: "FAIR" INDICATES FEW OR NO CLOUDS BELOW 12,000 FEET WITH NO
SIGNIFICANT WEATHER AND/OR OBSTRUCTIONS TO VISIBILITY.

...SOUTH CENTRAL NEBRASKA...

CITY           SKY/WX    TMP DP  RH WIND       PRES   REMARKS
GRAND ISLAND   SUNNY     50  37  61 CALM      29.43F
HASTINGS       SUNNY     48  39  71 VRB3      29.45S
KEARNEY        SUNNY     50  -2  11 CALM      29.43S
ORD            SUNNY     48  34  58 CALM      29.39F
YORK           SUNNY     48  39  71 W5        29.44F
AURORA         SUNNY     49  38  66 CALM      29.43F
LEXINGTON      SUNNY     45  36  70 NW6       29.42F
HOLDREGE       SUNNY     46  38  74 SW5       29.44R
HEBRON         SUNNY     48  42  77 S6        29.46F

...NEBRASKA PANHANDLE...

CITY           SKY/WX    TMP DP  RH WIND       PRES   REMARKS
CHADRON        SUNNY     35  26  69 W7        29.42F WCI  29
ALLIANCE       SUNNY     43  29  57 SW6       29.40F
SCOTTSBLUFF    SUNNY     38  27  64 E5        29.41F WCI  34
SIDNEY         SUNNY     42  25  50 S10       29.41F

...WESTERN AND NORTH CENTRAL NEBRASKA...

CITY           SKY/WX    TMP DP  RH WIND       PRES   REMARKS
VALENTINE      CLOUDY    44  31  60 W10       29.40S
AINSWORTH      PTSUNNY   46  32  58 W8        29.39F
ONEILL         SUNNY     47  33  58 NW10      29.39F
BROKEN BOW     SUNNY     46  37  71 SW3       29.40F
IMPERIAL       SUNNY     44  27  51 CALM      29.42F
NORTH PLATTE   SUNNY     45  32  60 W7        29.42F
MCCOOK         SUNNY     46  34  62 VRB3      29.43F

...EASTERN NEBRASKA...

CITY           SKY/WX    TMP DP  RH WIND       PRES   REMARKS
NORFOLK        CLOUDY    46  34  62 W12       29.39S
SO SIOUX CITY  CLOUDY    43  37  79 NW9       29.40S
TEKAMAH        MOSUNNY   47  38  71 W12       29.43R
COLUMBUS       SUNNY     48  39  71 SW9       29.43F
ALBION         SUNNY    N/A N/A N/A W6        29.41F
OMAHA EPPLEY   PTSUNNY   49  38  65 SW5       29.43F
OFFUTT AFB     MOSUNNY   49  44  82 SW9       29.44F
MILLARD        SUNNY     50  40  69 W6        29.44F
LINCOLN        SUNNY     50  40  68 SW10      29.46F
NEBRASKA CITY  SUNNY     45  45 100 SW10      29.46F
BEATRICE       SUNNY     50  42  73 SW10      29.46F
FALLS CITY     MOSUNNY   51  41  68 SW9       29.47F

...NORTHERN KANSAS...

CITY           SKY/WX    TMP DP  RH WIND       PRES   REMARKS
GOODLAND       CLOUDY    46  35  65 E9        29.39F
HILL CITY      SUNNY     53  37  54 NE3       29.42F
NORTON         CLEAR     48  34  57 CALM      29.44
PHILLIPSBURG   SUNNY     48  37  66 CALM      29.45F
SMITH CENTER   SUNNY     46  37  71 CALM      29.46F
HAYS           SUNNY     50  37  61 SE8       29.43F
RUSSELL        SUNNY     50  38  63 SE8       29.43F
CONCORDIA      SUNNY     51  39  63 VRB6      29.46F
SALINA         SUNNY     50  39  66 S3        29.48F
TOPEKA         SUNNY     52  41  66 S8        29.49F



USA.gov is the U.S. government's official web portal to all federal, state and local government web resources and services.